[[{"header":{"parameterUnit":"m.s-1","parameterCategory":1,"la1":30.2991,"la2":30.254,"lo1":-89.0895,"lo2":-89.0444,"dy":0.0017,"dx":0.0017,"nx":28,"ny":28,"refTime":"2025-03-20T03:00:00:Z","depth":0,"parameterNumber":2,"parameterNumberName":"U-component_of_WINDS"},"data":[0,0,0,0,0,0,0,0,0,0,0,0,0,0,0,0,0,0,0,0,0,0,0,0,0,0,0,0,0,0,0,0,0,0,0,0,0,0,0,0,0,0,0,0,0,0,0,0,0,0,0,0,0,0,0,0,0,0,7.0859,7.0861,0,7.1047,7.1049,7.1051,7.1014,7.1011,7.1007,7.1004,7.1196,7.1204,7.1212,0,0,0,0,0,0,0,0,0,0,0,0,0,7.0472,7.0479,7.0859,7.0862,7.0864,7.1046,7.1049,7.1052,7.1015,7.1011,7.1006,7.1003,7.1193,7.1203,7.1213,0,0,0,0,0,0,0,0,0,0,0,0,0,7.0648,7.0481,7.0859,7.0868,7.087,7.1046,7.1049,7.1052,7.1016,7.101,7.1005,7.1001,7.119,7.1202,7.1214,7.1393,0,0,7.1252,7.1257,0,0,0,0,0,0,0,0,7.0638,7.0662,7.0864,7.0867,7.0871,7.1002,7.0983,7.1166,7.1017,7.096,7.1004,7.0998,7.1135,7.1152,7.1198,7.1402,7.141,7.1253,7.1261,7.1266,7.127,0,0,0,0,0,0,0,7.0626,7.0654,7.0933,7.0867,7.0871,7.0863,7.0882,7.1017,7.1074,7.0965,7.0963,7.0985,7.1136,7.1186,7.1203,7.1413,7.1253,7.1264,7.1272,7.1276,7.1776,7.1781,0,0,0,0,0,0,7.061,7.0644,7.0927,7.0939,7.0739,7.0874,7.0896,7.0965,7.1073,7.1084,7.099,7.0983,7.1168,7.1188,7.1209,7.1427,7.1266,7.1278,7.1285,7.177,7.1777,7.1783,0,0,0,0,0,0,7.0602,7.0636,7.092,7.0791,7.0826,7.0886,7.0964,7.0971,7.1021,7.1091,7.1101,7.103,7.1165,7.1192,7.1348,7.1433,7.1283,7.1294,7.1763,7.1772,7.178,7.1864,0,0,0,0,0,0,7.0591,7.0633,7.0701,7.0793,7.0833,7.1055,7.0969,7.0979,7.1043,7.1036,7.1132,7.1143,7.1163,7.133,7.1361,7.1448,7.1304,7.1755,7.1767,7.1777,7.1854,7.1874,7.1892,0,0,0,0,0,7.0577,7.0716,7.0704,7.0739,7.0919,7.106,7.1084,7.1103,7.105,7.1119,7.1165,7.114,7.1419,7.1346,7.138,7.1473,7.175,7.1764,7.1776,7.1845,7.187,7.1891,0,0,0,0,0,0,7.0632,7.0728,7.0716,7.0889,7.0967,7.1054,7.1141,7.1129,7.1223,7.1213,7.1233,7.1255,7.1415,7.1459,7.1376,7.1653,7.1577,7.1598,7.1618,7.1642,7.1661,7.1647,7.1314,0,0,0,0,0,7.0664,7.077,7.0849,7.0994,7.1034,7.1081,7.1143,7.1152,7.1233,7.1266,7.1322,7.1403,7.1509,7.1578,7.1679,7.186,7.1882,7.1941,7.196,7.1975,7.1993,7.2094,7.2122,7.1826,7.1826,7.1826,0,0,7.0732,7.0798,7.0863,7.1007,7.1068,7.1178,7.1109,7.1228,7.131,7.1284,7.1435,7.148,7.1571,7.1742,7.1819,7.1783,7.208,7.1992,7.2004,7.2013,7.2111,7.2139,7.2164,7.1835,7.1833,7.1832,0,0,7.0912,7.0971,7.11,7.1163,7.1258,7.1289,7.132,7.141,7.1439,7.1591,7.1575,7.1673,7.1855,7.1921,7.1979,7.2187,7.2169,7.222,7.2319,7.2418,7.2442,7.2462,7.2538,7.2565,7.2237,7.2237,7.2237,0,7.0984,7.1149,7.1167,7.1289,7.1354,7.1336,7.1467,7.1528,7.165,7.1696,7.1654,7.1884,7.1943,7.213,7.2181,7.2228,7.2265,7.2208,7.2437,7.2458,7.2478,7.255,7.2579,7.2243,7.2242,7.2242,7.2241,0,7.1234,7.1349,7.1441,7.1561,7.1636,7.1762,7.1801,7.1875,7.1878,7.1914,7.2071,7.2143,7.2259,7.2304,7.2308,7.2493,7.2468,7.2432,7.2356,7.2511,7.258,7.2608,7.2251,7.2249,7.2247,7.2246,0,0,7.1451,7.1582,7.1616,7.1671,7.1775,7.1865,7.1991,7.2105,7.2169,7.2255,7.2362,7.2518,7.2486,7.2551,7.2562,7.2649,7.2812,7.2602,7.2605,7.264,7.3023,7.305,7.3082,7.2801,7.2806,7.2811,7.3016,0,7.1642,7.1864,7.1886,7.2085,7.2193,7.2179,7.2289,7.2366,7.2404,7.2501,7.2543,7.2653,7.2602,7.2642,7.2727,7.2774,7.289,7.276,7.2902,7.2907,7.288,7.3117,7.3146,7.3336,7.3042,7.3047,7.305,0,7.1893,7.1987,7.2197,7.2289,7.2335,7.2434,7.2542,7.2635,7.2722,7.2744,7.2819,7.2819,7.2951,7.2871,7.3053,7.2964,7.3024,7.3057,7.3065,7.3079,7.2988,7.3139,7.3397,7.3425,7.3093,7.3089,7.3086,0,7.2032,7.2212,7.2362,7.2409,7.2519,7.2589,7.2639,7.2721,7.2789,7.2884,7.2929,7.3038,7.3098,7.3183,7.3214,7.3152,7.3396,7.3317,7.3418,7.3418,7.347,7.3466,7.3741,7.3507,7.3507,7.3506,7.3506,0,7.2243,7.2372,7.2426,7.2518,7.2664,7.2689,7.2832,7.2878,7.2952,7.3054,7.3049,7.3144,7.3179,7.3281,7.3306,7.3454,7.3481,7.3503,7.3508,7.3504,7.3501,7.3543,7.3531,7.3514,7.3512,7.3511,7.351,0,7.2423,7.2464,7.2627,7.2718,7.2745,7.2848,7.2927,7.3017,7.3054,7.3183,7.3215,7.3274,7.3394,7.3433,7.3577,7.3594,7.3768,7.3761,7.3739,7.374,7.3839,7.3829,7.4151,7.4195,7.3931,7.3934,7.3936,0,7.2554,7.2654,7.2757,7.2825,7.2878,7.2987,7.3057,7.3087,7.316,7.3269,7.3346,7.3465,7.3562,7.3755,7.3811,7.3922,7.3919,7.4024,7.3935,7.3929,7.3922,7.3916,7.3927,7.404,7.4043,7.4045,7.4047,0,7.2785,7.2801,7.2902,7.3012,7.3097,7.3184,7.3269,7.3325,7.3367,7.3451,7.3574,7.3649,7.3798,7.3917,7.4031,7.4083,7.4073,7.4075,7.4104,7.4101,7.4084,7.4096,7.3785,7.4067,7.4065,7.4064,7.4063,7.4062,7.2946,7.3034,7.3122,7.3236,7.3303,7.3383,7.3472,7.3522,7.3625,7.3749,7.376,7.3893,7.3981,7.4133,7.4191,7.4296,7.4266,7.4308,7.4319,7.433,7.4338,7.4068,7.4317,7.4316,7.4316,7.4315,7.4315,0,7.3176,7.3232,7.3337,7.3457,7.3547,7.353,7.3624,7.3701,7.3819,7.3901,7.3997,7.414,7.4256,7.4322,7.4439,7.451,7.4509,7.454,7.4535,7.4548,7.4357,7.4321,7.4539,7.4539,7.4539,7.4539,7.4539,7.4539,7.3307,7.3457,7.3484,7.3668,7.3724,7.3854,7.391,7.3984,7.405,7.421,7.4307,7.4349,7.4426,7.4548,7.4655,7.4671,7.4715,7.475,7.4763,7.4584,7.4561,7.4539,7.4505,7.4759,7.4759,7.4945,7.4947,7.4948]},{"header":{"parameterUnit":"m.s-1","parameterCategory":1,"la1":30.2991,"la2":30.254,"lo1":-89.0895,"lo2":-89.0444,"dy":0.0017,"dx":0.0017,"nx":28,"ny":28,"refTime":"2025-03-20T03:00:00:Z","depth":0,"parameterNumber":3,"parameterNumberName":"V-component_of_WINDS"},"data":[0,0,0,0,0,0,0,0,0,0,0,0,0,0,0,0,0,0,0,0,0,0,0,0,0,0,0,0,0,0,0,0,0,0,0,0,0,0,0,0,0,0,0,0,0,0,0,0,0,0,0,0,0,0,0,0,0,0,-7.3979,-7.3982,0,-7.4215,-7.4218,-7.422,-7.4203,-7.42,-7.4196,-7.4193,-7.4433,-7.4443,-7.4452,0,0,0,0,0,0,0,0,0,0,0,0,0,-7.3514,-7.3522,-7.3979,-7.3982,-7.3985,-7.4215,-7.4218,-7.4221,-7.4204,-7.4199,-7.4195,-7.4191,-7.443,-7.4442,-7.4453,0,0,0,0,0,0,0,0,0,0,0,0,0,-7.3729,-7.3525,-7.3978,-7.4004,-7.4008,-7.4214,-7.4218,-7.4222,-7.4205,-7.4199,-7.4194,-7.4189,-7.4426,-7.4441,-7.4455,-7.465,0,0,-7.4499,-7.4506,0,0,0,0,0,0,0,0,-7.3717,-7.3746,-7.3997,-7.4002,-7.4008,-7.4174,-7.4142,-7.4365,-7.4206,-7.413,-7.4193,-7.4187,-7.4351,-7.4372,-7.4428,-7.4661,-7.4672,-7.4501,-7.4509,-7.4516,-7.452,0,0,0,0,0,0,0,-7.3702,-7.3736,-7.4072,-7.4001,-7.4008,-7.4004,-7.4029,-7.4184,-7.4267,-7.4136,-7.4136,-7.4164,-7.4353,-7.4414,-7.4433,-7.4675,-7.45,-7.4513,-7.4522,-7.4528,-7.5083,-7.5089,0,0,0,0,0,0,-7.3681,-7.3724,-7.4065,-7.4079,-7.3847,-7.4016,-7.4044,-7.4126,-7.4266,-7.4282,-7.4168,-7.4162,-7.4391,-7.4416,-7.4442,-7.4681,-7.4516,-7.4529,-7.4537,-7.5077,-7.5085,-7.5091,0,0,0,0,0,0,-7.3672,-7.3712,-7.4055,-7.3902,-7.3945,-7.403,-7.4122,-7.4134,-7.4194,-7.429,-7.4304,-7.4214,-7.4388,-7.4421,-7.4599,-7.4689,-7.4536,-7.4549,-7.507,-7.508,-7.5088,-7.516,0,0,0,0,0,0,-7.3658,-7.3709,-7.3783,-7.3903,-7.3953,-7.4209,-7.4128,-7.4142,-7.4219,-7.4214,-7.4337,-7.4352,-7.4387,-7.4577,-7.4613,-7.4706,-7.456,-7.5063,-7.5074,-7.5085,-7.515,-7.517,-7.5188,0,0,0,0,0,-7.3642,-7.3793,-7.3787,-7.3828,-7.4049,-7.4214,-7.4243,-7.4279,-7.4226,-7.4303,-7.4365,-7.4349,-7.4673,-7.4596,-7.4636,-7.4735,-7.5057,-7.5071,-7.5084,-7.5141,-7.5166,-7.5187,0,0,0,0,0,0,-7.3681,-7.381,-7.3804,-7.3999,-7.4096,-7.4211,-7.4308,-7.4304,-7.4417,-7.4407,-7.4447,-7.4476,-7.4655,-7.4712,-7.4624,-7.4932,-7.4858,-7.4881,-7.4888,-7.4912,-7.4931,-7.4914,-7.4572,0,0,0,0,0,-7.3712,-7.3836,-7.3942,-7.4104,-7.4153,-7.4222,-7.4295,-7.4316,-7.4417,-7.4458,-7.4532,-7.4632,-7.4756,-7.4837,-7.4957,-7.5158,-7.5186,-7.5246,-7.5265,-7.528,-7.5299,-7.5412,-7.544,-7.5136,-7.5136,-7.5136,0,0,-7.3778,-7.3864,-7.3939,-7.4114,-7.4191,-7.4319,-7.4257,-7.4394,-7.4489,-7.4478,-7.4652,-7.471,-7.4824,-7.5015,-7.5102,-7.5068,-7.5389,-7.5297,-7.5309,-7.532,-7.5429,-7.5457,-7.5483,-7.5145,-7.5143,-7.5142,0,0,-7.3964,-7.4041,-7.4185,-7.4265,-7.4383,-7.4428,-7.4463,-7.458,-7.4618,-7.4793,-7.4788,-7.4902,-7.5115,-7.5197,-7.5266,-7.5486,-7.5476,-7.5524,-7.5623,-7.5732,-7.5756,-7.5777,-7.5857,-7.5885,-7.5542,-7.5542,-7.5542,0,-7.4031,-7.4224,-7.426,-7.4399,-7.4477,-7.4474,-7.4621,-7.4696,-7.4847,-7.4901,-7.486,-7.513,-7.5206,-7.5417,-7.547,-7.5526,-7.5568,-7.551,-7.575,-7.5772,-7.5792,-7.5869,-7.5898,-7.5547,-7.5547,-7.5546,-7.5546,0,-7.4301,-7.4435,-7.4537,-7.4684,-7.4773,-7.4916,-7.4974,-7.506,-7.5073,-7.5123,-7.5301,-7.5393,-7.5532,-7.5583,-7.5596,-7.5797,-7.5773,-7.5741,-7.5667,-7.5826,-7.5898,-7.5928,-7.5555,-7.5553,-7.5551,-7.555,0,0,-7.4517,-7.4684,-7.4722,-7.4789,-7.4921,-7.5025,-7.5167,-7.5304,-7.5378,-7.5483,-7.5604,-7.5786,-7.5758,-7.5837,-7.5859,-7.5955,-7.6125,-7.5912,-7.5915,-7.5949,-7.6354,-7.6378,-7.6411,-7.6119,-7.6125,-7.6129,-7.6345,0,-7.4718,-7.4971,-7.5009,-7.5233,-7.5357,-7.5358,-7.5482,-7.5577,-7.5628,-7.5741,-7.5797,-7.5926,-7.5878,-7.5926,-7.6021,-7.6084,-7.6207,-7.6069,-7.6233,-7.6239,-7.6206,-7.6449,-7.6474,-7.6673,-7.6373,-7.6378,-7.6381,0,-7.4985,-7.5098,-7.5335,-7.5451,-7.5505,-7.5616,-7.5746,-7.5854,-7.5961,-7.5992,-7.6081,-7.6093,-7.6242,-7.6162,-7.6368,-7.6274,-7.6343,-7.6385,-7.6394,-7.6411,-7.632,-7.6474,-7.6737,-7.6768,-7.6426,-7.6423,-7.6419,0,-7.5121,-7.5332,-7.5502,-7.556,-7.5699,-7.5778,-7.5839,-7.5942,-7.6022,-7.6135,-7.6188,-7.6317,-7.6388,-7.6488,-7.6534,-7.6471,-7.6739,-7.6662,-7.6769,-7.6768,-7.6825,-7.6821,-7.7105,-7.6868,-7.6868,-7.6867,-7.6867,0,-7.5341,-7.5486,-7.5565,-7.5669,-7.5832,-7.5875,-7.6035,-7.6094,-7.6186,-7.6302,-7.631,-7.6419,-7.6473,-7.659,-7.6627,-7.6794,-7.6825,-7.6855,-7.6863,-7.6855,-7.6851,-7.6901,-7.6889,-7.6875,-7.6874,-7.6872,-7.6871,0,-7.5521,-7.5579,-7.5764,-7.5882,-7.5915,-7.603,-7.613,-7.6232,-7.6283,-7.643,-7.6467,-7.6547,-7.6686,-7.6742,-7.6911,-7.6936,-7.7128,-7.7125,-7.7092,-7.7095,-7.7199,-7.7189,-7.7526,-7.7573,-7.7304,-7.7307,-7.7309,0,-7.5658,-7.577,-7.5899,-7.5978,-7.6043,-7.6169,-7.6252,-7.6299,-7.6384,-7.6517,-7.6603,-7.6742,-7.6855,-7.7077,-7.7151,-7.7281,-7.7282,-7.7391,-7.7301,-7.729,-7.7285,-7.7279,-7.7291,-7.7407,-7.741,-7.7412,-7.7414,0,-7.5895,-7.5919,-7.6038,-7.6169,-7.6268,-7.6372,-7.6474,-7.6538,-7.6601,-7.6697,-7.684,-7.6928,-7.7102,-7.7241,-7.7376,-7.7439,-7.7438,-7.7442,-7.7474,-7.7467,-7.7444,-7.7459,-7.7139,-7.7434,-7.7432,-7.743,-7.7429,-7.7429,-7.6059,-7.6159,-7.6267,-7.64,-7.6482,-7.6578,-7.668,-7.6744,-7.6864,-7.701,-7.703,-7.7183,-7.7289,-7.7471,-7.754,-7.7661,-7.7633,-7.7678,-7.769,-7.7701,-7.7709,-7.7424,-7.7685,-7.7685,-7.7684,-7.7684,-7.7684,0,-7.6299,-7.6368,-7.649,-7.6634,-7.6739,-7.6729,-7.6842,-7.693,-7.7065,-7.7165,-7.7277,-7.7442,-7.7577,-7.7661,-7.7797,-7.7877,-7.7881,-7.7912,-7.7907,-7.7922,-7.7726,-7.7685,-7.7907,-7.7907,-7.7907,-7.7907,-7.7907,-7.7907,-7.6436,-7.6605,-7.6643,-7.6853,-7.6922,-7.7073,-7.7138,-7.7227,-7.7307,-7.7491,-7.7603,-7.7658,-7.7752,-7.7895,-7.8018,-7.804,-7.809,-7.8124,-7.8143,-7.7959,-7.7935,-7.7913,-7.7876,-7.8134,-7.8134,-7.833,-7.8332,-7.8333]}]]